Location: Spangle
(47.4302°N, 117.3779°W)
Time: 11:41:09
(UTC+00:00)

ISS - Pass Details

Date: 23 April 2026
Orbit: 414 x 424 km, 51.6° (Epoch: 11 May)

Event Time Altitude Azimuth Distance (km) Brightness Sun altitude
Exits shadow 10:28:46 26° 132° (SE) 866 -2.2 -20.1°
Drops below altitude 10° 10:31:22 10° 83° (E) 1,502 -0.3 -19.8°
Sets 10:33:40 0° 70° (ENE) 2,372 1.2 -19.5°
